AL7BX-WX Weather Reports


time (UTC)temp
C
wind
direction
speed
KPH
gust
KPH
rain 1hr
cm
rain 24hr
cm
rain mn
cm
humidity
%
barometer
mb
20260502224503 22 203 11.3 24.1 0.00 0.00 0.00 18
20260502223603 22 184 12.9 25.7 0.00 0.00 0.00 17
20260502222703 23 169 11.3 22.5 0.00 0.00 0.00 18
20260502221803 23 171 9.7 20.9 0.00 0.00 0.00 17
20260502220903 23 158 9.7 19.3 0.00 0.00 0.00 18
20260502220004 23 167 12.9 32.2 0.00 0.00 0.00 18
20260502215403 23 190 11.3 32.2 0.00 0.00 0.00 18
20260502214504 23 189 12.9 32.2 0.00 0.00 0.00 18
20260502213814 23 186 12.9 29.0 0.00 0.00 0.00 17
20260502212703 22 230 12.9 29.0 0.00 0.00 0.00 20
20260502211803 22 203 9.7 29.0 0.00 0.00 0.00 19
20260502210903 22 225 11.3 27.4 0.00 0.00 0.00 19
20260502210213 22 215 8.0 25.7 0.00 0.00 0.00 19
20260502205403 22 197 11.3 25.7 0.00 0.00 0.00 19
20260502204503 22 248 9.7 25.7 0.00 0.00 0.00 21
20260502203603 22 244 9.7 22.5 0.00 0.00 0.00 20
20260502202703 22 256 9.7 27.4 0.00 0.00 0.00 20
20260502201803 22 244 11.3 27.4 0.00 0.00 0.00 20
20260502200903 22 261 11.3 27.4 0.00 0.00 0.00 22
20260502200213 21 271 9.7 19.3 0.00 0.00 0.00 22
20260502195613 21 248 8.0 19.3 0.00 0.00 0.00 21
20260502194503 21 280 8.0 20.9 0.00 0.00 0.00 21
20260502193603 21 287 8.0 16.1 0.00 0.00 0.00 24
20260502192703 21 244 12.9 25.7 0.00 0.00 0.00 21
20260502191803 21 249 8.0 19.3 0.00 0.00 0.00 22
20260502190903 20 282 6.4 20.9 0.00 0.00 0.00 24
20260502190004 20 302 9.7 22.5 0.00 0.00 0.00 24
20260502185404 20 273 4.8 16.1 0.00 0.00 0.00 28
20260502184503 20 267 6.4 14.5 0.00 0.00 0.00 23
20260502183603 19 311 8.0 16.1 0.00 0.00 0.00 24
20260502182703 20 267 4.8 12.9 0.00 0.00 0.00 22
20260502181803 19 279 4.8 14.5 0.00 0.00 0.00 22
20260502181113 19 240 4.8 11.3 0.00 0.00 0.00 22
20260502163603 15 342 3.2 11.3 0.00 0.00 0.00 27
20260502162703 15 342 3.2 11.3 0.00 0.00 0.00 29
20260502161803 15 310 3.2 6.4 0.00 0.00 0.00 31
20260502160903 14 301 1.6 8.0 0.00 0.00 0.00 31
20260502160214 13 293 3.2 9.7 0.00 0.00 0.00 32
20260502151803 10 198 3.2 4.8 0.00 0.00 0.00 35
20260502151114 10 197 1.6 6.4 0.00 0.00 0.00 37
20260502150213 9 186 1.6 6.4 0.00 0.00 0.00 41
20260502123603 0 171 0.0 1.6 0.00 0.00 0.00 58
20260502122703 0 171 1.6 3.2 0.00 0.00 0.00 58
20260502121803 0 171 0.0 3.2 0.00 0.00 0.00 58
20260502120903 0 171 1.6 4.8 0.00 0.00 0.00 58
20260502115614 0 0 0.0 0.0 0.00 0.00 0.00 57
20260502114503 0 171 1.6 4.8 0.00 0.00 0.00 56
20260502113814 1 171 1.6 4.8 0.00 0.00 0.00 56
20260502112703 1 171 1.6 4.8 0.00 0.00 0.00 56
20260502111803 1 171 1.6 4.8 0.00 0.00 0.00 56
20260502110903 1 172 1.6 4.8 0.00 0.00 0.00 57
20260502110003 1 172 0.0 4.8 0.00 0.00 0.00 56
20260502105403 1 172 1.6 4.8 0.00 0.00 0.00 56
20260502104712 1 172 0.0 3.2 0.00 0.00 0.00 53
20260502103603 2 172 1.6 4.8 0.00 0.00 0.00 53
20260502102703 2 172 0.0 3.2 0.00 0.00 0.00 53
20260502101114 2 174 1.6 4.8 0.00 0.00 0.00 57
20260502090903 2 169 0.0 1.6 0.00 0.00 0.00 53
20260502071113 4 169 0.0 4.8 0.00 0.00 0.00 47
20260502070214 5 0 0.0 0.0 0.00 0.00 0.00 47
20260502065403 5 0 0.0 0.0 0.00 0.00 0.00 45
20260502064503 5 0 0.0 0.0 0.00 0.00 0.00 45
20260502063603 5 0 0.0 0.0 0.00 0.00 0.00 45
20260502062914 5 0 0.0 0.0 0.00 0.00 0.00 45
20260502061803 5 0 0.0 0.0 0.00 0.00 0.00 45
20260502060903 6 0 0.0 0.0 0.00 0.00 0.00 42
20260502060005 6 0 0.0 0.0 0.00 0.00 0.00 40
20260502055403 7 0 0.0 0.0 0.00 0.00 0.00 39
20260502054503 7 0 0.0 0.0 0.00 0.00 0.00 40
20260502053603 6 0 0.0 0.0 0.00 0.00 0.00 39
20260502052703 6 163 1.6 6.4 0.00 0.00 0.00 39
20260502051803 6 26 0.0 1.6 0.00 0.00 0.00 38
20260502050903 6 0 0.0 0.0 0.00 0.00 0.00 38
20260502050004 7 26 0.0 3.2 0.00 0.00 0.00 37
20260502045403 7 26 0.0 3.2 0.00 0.00 0.00 36
20260502044503 8 26 0.0 4.8 0.00 0.00 0.00 35
20260502043603 8 26 0.0 3.2 0.00 0.00 0.00 34
20260502042703 9 27 0.0 1.6 0.00 0.00 0.00 33
20260502041803 10 7 1.6 4.8 0.00 0.00 0.00 32
20260502040903 10 4 1.6 4.8 0.00 0.00 0.00 32
20260502040004 10 5 1.6 4.8 0.00 0.00 0.00 32
20260502035403 9 2 1.6 6.4 0.00 0.00 0.00 33
20260502034503 8 344 0.0 1.6 0.00 0.00 0.00 33
20260502033603 8 344 0.0 1.6 0.00 0.00 0.00 33
20260502032703 9 344 0.0 3.2 0.00 0.00 0.00 34
20260502031803 10 344 0.0 1.6 0.00 0.00 0.00 34
20260502030903 10 344 0.0 3.2 0.00 0.00 0.00 33
20260502030213 11 0 0.0 0.0 0.00 0.00 0.00 33
20260502025403 11 344 0.0 3.2 0.00 0.00 0.00 31
20260502024714 12 344 1.6 6.4 0.00 0.00 0.00 28
20260502023603 12 343 4.8 9.7 0.00 0.00 0.00 27
20260502022703 13 347 4.8 9.7 0.00 0.00 0.00 27
20260502021803 13 346 4.8 8.0 0.00 0.00 0.00 26
20260502020903 14 330 8.0 16.1 0.00 0.00 0.00 26
20260502020004 15 334 8.0 16.1 0.00 0.00 0.00 25
20260502015403 15 327 8.0 16.1 0.00 0.00 0.00 25
20260502014503 15 338 8.0 17.7 0.00 0.00 0.00 26
20260502013813 15 338 11.3 24.1 0.00 0.00 0.00 25
20260502012703 16 328 12.9 22.5 0.00 0.00 0.00 25
20260502011803 16 344 11.3 20.9 0.00 0.00 0.00 24
20260502010903 16 324 12.9 22.5 0.00 0.00 0.00 25
20260502010004 16 342 12.9 25.7 0.00 0.00 0.00 25
20260502005403 17 339 9.7 25.7 0.00 0.00 0.00 25
20260502004503 17 337 9.7 20.9 0.00 0.00 0.00 25
20260502003603 17 341 11.3 27.4 0.00 0.00 0.00 25
20260502002703 17 340 12.9 27.4 0.00 0.00 0.00 24
20260502002013 17 337 11.3 20.9 0.00 0.00 0.00 25
20260502000903 17 341 8.0 19.3 0.00 0.00 0.00 26
20260502000004 16 343 9.7 17.7 0.00 0.00 0.00 27
20260501235613 16 350 11.3 20.9 0.00 0.00 0.00 27
20260501234503 17 343 11.3 24.1 0.00 0.00 0.00 26
20260501233603 17 345 11.3 20.9 0.00 0.00 0.00 27
20260501232913 17 332 12.9 25.7 0.00 0.00 0.00 26
20260501231803 17 325 12.9 25.7 0.00 0.00 0.00 26
20260501231114 17 331 12.9 25.7 0.00 0.00 0.00 27
20260501230003 17 334 16.1 25.7 0.00 0.00 0.00 26
20260501225613 17 337 12.9 22.5 0.00 0.00 0.00 27